Flag for Germany Weather past 2 weeks in Zweibrücken, Rhineland-Palatinate, Germany

Now
41 °F

Passing clouds.


Feels Like: 32 °F
Forecast: 37 / 46 °F
Wind: 17 mph from Southwest

Location: Saarbruecken / Ensheim

Current Time: Dec 22, 2014 at 7:29:03 PM

Latest Report: Dec 22, 2014 at 6:50 PM


Visibility: 5 mi

Pressure: 30.30 "Hg

Humidity: 100%

Dew point: 41 °F

Location of ZweibrückenLocation

Historic Weather in Zweibrücken — Graph

°F

Zweibrücken temperature yesterday

Maximum temperature yesterday: 43 °F (at 12:20 PM)
Minimum temperature yesterday: 36 °F (at 7:50 AM)
Average temperature yesterday: 41 °F

Past Weeks' High & Low Weather Summary

 TemperatureHumidityPressure
High52 °F (Dec 18, 1:20 PM)100% (Dec 8, 1:20 AM)30.51 "Hg (Dec 8, 1:20 AM)
Low32 °F (Dec 8, 9:20 PM)71% (Dec 12, 11:50 AM)29.65 "Hg (Dec 12, 4:50 PM)
Average41 °F92%30.07 "Hg
* Reported Dec 7 6:20 PM — Dec 22 6:20 PM, Zweibrücken, Weather by CustomWeather, © 2014

Note: Actual official high and low records may vary slightly from our data, if they occured in-between our weather recording intervals... More about our weather records

Advertising

Zweibrücken weather history for previous 24 hours

 ConditionsComfort  
Time TempWeatherWind HumidityBarometerVisibility
6:20 PM
Dec 22
41 °FPassing clouds.21 mph93%30.30 "Hg6 mi
5:50 PM41 °FPassing clouds.21 mph100%30.30 "Hg6 mi
5:20 PM41 °FPassing clouds.20 mph93%30.30 "Hg4 mi
4:50 PM43 °FPassing clouds.17 mph87%30.30 "Hg4 mi
4:20 PM43 °FPartly sunny.22 mph87%30.27 "HgN/A
3:50 PM43 °FDrizzle. Low clouds.20 mph87%30.27 "Hg4 mi
3:20 PM43 °FOvercast.18 mph87%30.27 "HgN/A
2:50 PM43 °FOvercast.22 mph87%30.27 "HgN/A
2:20 PM43 °FOvercast.20 mph81%30.27 "HgN/A
1:50 PM43 °FOvercast.20 mph81%30.30 "HgN/A
1:20 PM43 °FOvercast.22 mph81%30.30 "HgN/A
12:50 PM43 °FOvercast.21 mph81%30.33 "HgN/A
12:20 PM43 °FOvercast.22 mph81%30.33 "HgN/A
11:50 AM43 °FOvercast.22 mph81%30.33 "HgN/A
11:20 AM43 °FOvercast.23 mph81%30.33 "HgN/A
10:50 AM43 °FOvercast.22 mph81%30.36 "HgN/A
10:20 AM43 °FOvercast.18 mph81%30.36 "HgN/A
9:50 AM43 °FOvercast.18 mph81%30.33 "HgN/A
9:20 AM41 °FOvercast.18 mph87%30.33 "HgN/A
8:50 AM41 °FOvercast.17 mph87%30.33 "HgN/A
8:20 AM41 °FOvercast.16 mph87%30.33 "HgN/A
7:50 AM41 °FPassing clouds.16 mph87%30.33 "HgN/A
7:20 AM41 °FPassing clouds.16 mph87%30.33 "HgN/A
6:50 AM41 °FPassing clouds.16 mph87%30.33 "HgN/A
6:20 AM41 °FPassing clouds.14 mph87%30.33 "HgN/A
5:50 AM41 °FPassing clouds.16 mph87%30.33 "HgN/A
5:20 AM41 °FPassing clouds.17 mph87%30.33 "HgN/A
4:20 AM41 °FPassing clouds.17 mph81%30.36 "HgN/A
3:50 AM41 °FPassing clouds.17 mph81%30.36 "HgN/A
3:20 AM41 °FPassing clouds.18 mph81%30.36 "HgN/A
2:50 AM43 °FPassing clouds.17 mph76%30.36 "HgN/A
2:20 AM43 °FPassing clouds.17 mph76%30.39 "HgN/A
1:20 AM41 °FPassing clouds.18 mph81%30.39 "HgN/A
12:50 AM41 °FPassing clouds.18 mph81%30.39 "HgN/A
12:20 AM41 °FPassing clouds.18 mph81%30.39 "HgN/A
11:50 PM
Dec 21
41 °FPassing clouds.17 mph81%30.39 "HgN/A
11:20 PM41 °FPassing clouds.20 mph81%30.39 "HgN/A
10:20 PM41 °FPassing clouds.15 mph81%30.42 "HgN/A
9:50 PM43 °FPassing clouds.18 mph76%30.42 "HgN/A
9:20 PM43 °FPassing clouds.18 mph76%30.42 "HgN/A
8:50 PM43 °FPassing clouds.17 mph76%30.42 "HgN/A
8:20 PM43 °FLight rain. Passing clouds.18 mph76%30.45 "HgN/A
7:50 PM43 °FPassing clouds.18 mph76%30.42 "HgN/A
7:20 PM43 °FPassing clouds.20 mph76%30.42 "HgN/A
Weather by CustomWeather, © 2014

See weather overviewHow to use our weather pages